ARABSAT-7B (BADR-8)

Last updated on Thu Oct 30 2025 00:02:52 GMT+0000 (Coordinated Universal Time)

1 56757U 23075A 25302.47610441 .00000155 00000+0 00000+0 0 9995 2 56757 0.0763 28.6359 0001887 309.8763 256.9781 1.00270801 8804
UTC large
Height (km)
Speed (km/s)
/
Latitude / Longitude
Inclination (degrees)
Orbital Period (minutes)
Azimuth
Elevation
Range (km)
Doppler Factor

Next 0 passes for location: London (51.5072 / 0.1276)

Sorry there are no passes over London.